weather.gov     
National Weather Service

Other Surface Observations
NWS Homepage
This page is being discontinued on March 12, 2014.
The same data is available at this site. Please update your bookmarks.
Thank you, and we apologize for the inconvenience.
Please send an email to SR-SRH.Webmaster@noaa.gov with any concerns.


Current Version
Previous Version:    01  02  03  04  
[Printable]
989
SXUS56 KLOX 010050
OSOLOX

OFFSHORE OIL PLATFORM IRENE WEATHER
NATIONAL WEATHER SERVICE OXNARD CA
550 PM PDT SUN AUG 31 2014

OBSERVATION FROM DRILLING RIG "IRENE"
LOCATION 34 DEG 37 MIN N...120 DEG 44 MIN W...30 MILES SW
OF SANTA MARIA...ANEMOMETER LOCATED 305 FEET ABOVE SEA LEVEL.

SPECI 010045Z 33020KT 10SM SKC 18/17 A2984 RMKS SEAS 4 TO 6 FEET

$$










U.S. Dept. of Commerce
NOAA National Weather Service
1325 East West Highway
Silver Spring, MD 20910
E-mail: w-nws.webmaster@noaa.gov
Page last modified: May 16, 2007
NATIONAL WEATHER SERVICE: for Safety, for Work, for Fun - FOR LIFE